Retour au catalogue

CZ-6A DEB

ActifPO
NORAD 54311·DEBRIS·🇨🇳 China

Lancé Nov 11, 2022 depuis Taiyuan Satellite Launch Center

Loading…

Prochains Passages (prochaines 24 heures)

TLE

FraisSource: Space-Track

Époque: Sep 14, 2026, 04:53 UTC

1 54311U 22151BE  26257.20390243  .00011508  00000-0  13048-2 0  9993
2 54311  98.6150 339.7566 0053928 321.9179  37.8227 14.85484137203697

Suivez CZ-6A DEB en temps réel avec AllMySat

Download on the App Store